| time (UTC) | temp F | wind direction | speed knots | gust knots | rain 1hr in | rain 24hr in | rain mn in | humidity % | barometer mb |
| 20260507051558 | 59 | 0 | 0.0 | 1.7 | 0.00 | 0.00 | 0.00 | 83 | 1018.0 |
| 20260507050058 | 60 | 0 | 0.0 | 1.7 | 0.00 | 0.00 | 0.00 | 82 | 1017.8 |
| 20260507044630 | 60 | 291 | 0.9 | 2.6 | 0.00 | 0.00 | 0.00 | 83 | 1017.9 |
| 20260507043053 | 60 | 294 | 0.0 | 1.7 | 0.00 | 0.00 | 0.00 | 82 | 1017.9 |
| 20260507041552 | 61 | 294 | 0.9 | 3.5 | 0.00 | 0.00 | 0.00 | 81 | 1017.9 |
| 20260507040050 | 61 | 291 | 1.7 | 6.1 | 0.00 | 0.00 | 0.00 | 81 | 1017.8 |
| 20260507034601 | 61 | 289 | 1.7 | 5.2 | 0.00 | 0.00 | 0.00 | 82 | 1017.7 |
| 20260507033105 | 61 | 288 | 0.9 | 4.3 | 0.00 | 0.00 | 0.00 | 83 | 1017.6 |
| 20260507031600 | 61 | 301 | 2.6 | 4.3 | 0.00 | 0.00 | 0.00 | 82 | 1017.4 |
| 20260507030108 | 62 | 286 | 1.7 | 7.0 | 0.00 | 0.00 | 0.00 | 82 | 1017.3 |
| 20260507024609 | 62 | 236 | 0.0 | 3.5 | 0.00 | 0.00 | 0.00 | 82 | 1017.0 |
| 20260507023051 | 62 | 245 | 1.7 | 5.2 | 0.00 | 0.00 | 0.00 | 82 | 1017.0 |
| 20260507021555 | 62 | 248 | 2.6 | 7.0 | 0.00 | 0.00 | 0.00 | 82 | 1016.8 |
| 20260507020059 | 63 | 256 | 3.5 | 7.8 | 0.00 | 0.00 | 0.00 | 82 | 1016.7 |
| 20260507014559 | 64 | 238 | 5.2 | 9.6 | 0.00 | 0.00 | 0.00 | 79 | 1016.6 |
| 20260507013100 | 66 | 261 | 5.2 | 8.7 | 0.00 | 0.00 | 0.00 | 75 | 1016.7 |
| 20260507011552 | 66 | 261 | 6.1 | 11.3 | 0.00 | 0.00 | 0.00 | 74 | 1016.7 |
| 20260507010049 | 67 | 263 | 5.2 | 12.2 | 0.00 | 0.00 | 0.00 | 73 | 1016.5 |
| 20260507004552 | 66 | 360 | 6.1 | 12.2 | 0.00 | 0.00 | 0.00 | 72 | 1016.5 |
| 20260507003051 | 66 | 259 | 5.2 | 13.0 | 0.00 | 0.00 | 0.00 | 75 | 1016.4 |
| 20260507001556 | 67 | 253 | 5.2 | 11.3 | 0.00 | 0.00 | 0.00 | 75 | 1016.4 |
| 20260507000053 | 67 | 260 | 5.2 | 10.4 | 0.00 | 0.00 | 0.00 | 73 | 1016.2 |
| 20260506234558 | 67 | 262 | 5.2 | 12.2 | 0.00 | 0.00 | 0.00 | 74 | 1016.2 |
| 20260506233058 | 66 | 252 | 6.1 | 12.2 | 0.00 | 0.00 | 0.00 | 75 | 1016.2 |
| 20260506231555 | 66 | 360 | 6.1 | 12.2 | 0.00 | 0.00 | 0.00 | 75 | 1016.4 |
| 20260506230052 | 66 | 260 | 7.8 | 13.0 | 0.00 | 0.00 | 0.00 | 75 | 1016.6 |
| 20260506224559 | 66 | 252 | 7.8 | 14.8 | 0.00 | 0.01 | 0.00 | 74 | 1016.6 |
| 20260506223050 | 66 | 223 | 7.8 | 14.8 | 0.00 | 0.01 | 0.00 | 74 | 1016.8 |
| 20260506221551 | 67 | 242 | 7.8 | 14.8 | 0.00 | 0.01 | 0.00 | 73 | 1016.9 |
| 20260506220054 | 67 | 232 | 7.0 | 14.8 | 0.00 | 0.01 | 0.00 | 73 | 1017.1 |
| 20260506214550 | 67 | 261 | 7.8 | 15.6 | 0.00 | 0.01 | 0.00 | 74 | 1017.3 |
| 20260506213053 | 66 | 279 | 8.7 | 13.9 | 0.00 | 0.01 | 0.00 | 74 | 1017.3 |
| 20260506211552 | 66 | 265 | 7.8 | 14.8 | 0.00 | 0.01 | 0.00 | 73 | 1017.5 |
| 20260506210054 | 66 | 273 | 8.7 | 14.8 | 0.00 | 0.01 | 0.00 | 73 | 1017.5 |
| 20260506204549 | 67 | 360 | 6.1 | 14.8 | 0.00 | 0.01 | 0.00 | 72 | 1017.7 |
| 20260506203051 | 66 | 360 | 6.1 | 13.0 | 0.00 | 0.01 | 0.00 | 73 | 1017.8 |
| 20260506201555 | 67 | 273 | 5.2 | 11.3 | 0.00 | 0.01 | 0.00 | 72 | 1017.8 |
| 20260506200054 | 66 | 279 | 5.2 | 13.9 | 0.00 | 0.01 | 0.00 | 72 | 1018.0 |
| 20260506194554 | 66 | 275 | 6.1 | 13.0 | 0.00 | 0.01 | 0.00 | 71 | 1018.2 |
| 20260506193051 | 67 | 277 | 6.1 | 13.0 | 0.00 | 0.01 | 0.00 | 70 | 1018.4 |
| 20260506191551 | 66 | 248 | 6.1 | 12.2 | 0.00 | 0.01 | 0.00 | 71 | 1018.4 |
| 20260506190058 | 67 | 310 | 5.2 | 12.2 | 0.00 | 0.01 | 0.00 | 69 | 1018.4 |
| 20260506184555 | 66 | 275 | 6.1 | 10.4 | 0.00 | 0.01 | 0.00 | 68 | 1018.4 |
| 20260506183057 | 66 | 260 | 4.3 | 9.6 | 0.00 | 0.01 | 0.00 | 67 | 1018.7 |
| 20260506181558 | 67 | 295 | 4.3 | 9.6 | 0.00 | 0.01 | 0.00 | 68 | 1018.6 |
| 20260506180051 | 66 | 281 | 4.3 | 11.3 | 0.00 | 0.01 | 0.00 | 70 | 1018.8 |
| 20260506174557 | 66 | 268 | 3.5 | 10.4 | 0.00 | 0.01 | 0.00 | 70 | 1018.9 |
| 20260506173122 | 65 | 292 | 4.3 | 8.7 | 0.00 | 0.01 | 0.00 | 70 | 1018.9 |
| 20260506171601 | 65 | 252 | 4.3 | 10.4 | 0.00 | 0.01 | 0.00 | 70 | 1018.9 |
| 20260506170055 | 65 | 250 | 4.3 | 8.7 | 0.00 | 0.01 | 0.00 | 69 | 1018.9 |
| 20260506164557 | 65 | 269 | 3.5 | 8.7 | 0.00 | 0.02 | 0.00 | 69 | 1018.9 |
| 20260506163104 | 66 | 236 | 2.6 | 7.0 | 0.00 | 0.02 | 0.00 | 69 | 1018.9 |
| 20260506161617 | 65 | 239 | 1.7 | 7.0 | 0.00 | 0.02 | 0.00 | 69 | 1018.9 |
| 20260506160049 | 63 | 302 | 1.7 | 6.1 | 0.00 | 0.02 | 0.00 | 72 | 1018.9 |
| 20260506154552 | 64 | 297 | 1.7 | 6.1 | 0.00 | 0.02 | 0.00 | 71 | 1018.9 |
| 20260506153057 | 68 | 78 | 0.9 | 3.5 | 0.00 | 0.02 | 0.00 | 66 | 1018.9 |
| 20260506151549 | 67 | 98 | 1.7 | 3.5 | 0.00 | 0.02 | 0.00 | 67 | 1018.9 |
| 20260506150056 | 65 | 108 | 2.6 | 5.2 | 0.00 | 0.02 | 0.00 | 69 | 1018.9 |
| 20260506144551 | 63 | 78 | 1.7 | 3.5 | 0.00 | 0.02 | 0.00 | 71 | 1018.8 |
| 20260506143052 | 62 | 74 | 1.7 | 4.3 | 0.00 | 0.02 | 0.00 | 73 | 1018.7 |
| 20260506141554 | 60 | 76 | 2.6 | 6.1 | 0.00 | 0.02 | 0.00 | 74 | 1018.5 |
| 20260506140054 | 59 | 74 | 2.6 | 4.3 | 0.00 | 0.02 | 0.00 | 76 | 1018.5 |
| 20260506134555 | 57 | 53 | 1.7 | 4.3 | 0.00 | 0.02 | 0.00 | 79 | 1018.4 |
| 20260506133055 | 55 | 44 | 2.6 | 4.3 | 0.00 | 0.02 | 0.00 | 80 | 1018.3 |
| 20260506131602 | 54 | 51 | 2.6 | 4.3 | 0.00 | 0.02 | 0.00 | 83 | 1018.2 |
| 20260506130131 | 53 | 49 | 1.7 | 3.5 | 0.00 | 0.02 | 0.00 | 83 | 1018.1 |
| 20260506124559 | 54 | 49 | 2.6 | 4.3 | 0.00 | 0.02 | 0.00 | 83 | 1017.9 |
| 20260506123053 | 54 | 55 | 3.5 | 5.2 | 0.00 | 0.02 | 0.00 | 83 | 1017.9 |
| 20260506121556 | 53 | 49 | 1.7 | 4.3 | 0.00 | 0.02 | 0.00 | 83 | 1017.7 |
| 20260506120056 | 54 | 35 | 1.7 | 3.5 | 0.00 | 0.02 | 0.00 | 83 | 1017.9 |
| 20260506114557 | 54 | 30 | 1.7 | 3.5 | 0.00 | 0.03 | 0.00 | 83 | 1017.8 |
| 20260506113058 | 53 | 31 | 1.7 | 3.5 | 0.00 | 0.03 | 0.00 | 82 | 1017.8 |
| 20260506111607 | 54 | 40 | 1.7 | 4.3 | 0.00 | 0.03 | 0.00 | 83 | 1017.7 |
| 20260506110111 | 54 | 30 | 1.7 | 3.5 | 0.00 | 0.03 | 0.00 | 83 | 1017.8 |
| 20260506104600 | 54 | 38 | 1.7 | 4.3 | 0.00 | 0.03 | 0.00 | 82 | 1017.7 |
| 20260506103110 | 54 | 14 | 1.7 | 3.5 | 0.00 | 0.03 | 0.00 | 83 | 1017.7 |
| 20260506101608 | 54 | 17 | 2.6 | 4.3 | 0.00 | 0.03 | 0.00 | 82 | 1017.5 |
| 20260506100121 | 55 | 5 | 1.7 | 3.5 | 0.00 | 0.03 | 0.00 | 82 | 1017.5 |
| 20260506094553 | 55 | 5 | 0.9 | 3.5 | 0.00 | 0.03 | 0.00 | 81 | 1017.6 |
| 20260506093053 | 56 | 346 | 1.7 | 2.6 | 0.00 | 0.03 | 0.00 | 80 | 1017.5 |
| 20260506091604 | 56 | 346 | 0.9 | 2.6 | 0.00 | 0.03 | 0.00 | 81 | 1017.5 |
| 20260506090108 | 56 | 0 | 0.0 | 1.7 | 0.00 | 0.03 | 0.00 | 80 | 1017.7 |
| 20260506084620 | 56 | 346 | 0.0 | 0.9 | 0.00 | 0.03 | 0.00 | 80 | 1017.9 |
| 20260506083055 | 56 | 346 | 0.0 | 1.7 | 0.00 | 0.03 | 0.00 | 80 | 1018.0 |
| 20260506081554 | 57 | 346 | 0.9 | 3.5 | 0.00 | 0.03 | 0.00 | 80 | 1018.0 |
| 20260506073054 | 58 | 242 | 0.9 | 1.7 | 0.00 | 0.03 | 0.00 | 80 | 1018.3 |
| 20260506071559 | 57 | 0 | 0.0 | 1.7 | 0.00 | 0.03 | 0.00 | 80 | 1018.4 |
| 20260506061550 | 57 | 0 | 0.0 | 0.9 | 0.00 | 0.03 | 0.03 | 80 | 1018.1 |